Weather History for Beatrice, NE

Change the Weather History Date:

Monday, December 24, 2012

  Actual Average Record
Temperature  
Mean Temperature 14 °F -  
Max Temperature 19 °F 35 °F 67 °F (1964)
Min Temperature 10 °F 17 °F -18 °F (1983)
Degree Days  
Heating Degree Days 50    
Moisture  
Dew Point 9 °F    
Average Humidity 73    
Maximum Humidity 84    
Minimum Humidity 64    
Precipitation  
Precipitation 0.00 in - - ()
Sea Level Pressure  
Sea Level Pressure 30.10 in    
Wind  
Wind Speed 10 mph (North)    
Max Wind Speed 18 mph    
Max Gust Speed 22 mph    
Visibility 10 miles    
Events      
Averages and records for this station are not official NWS values.
T = Trace of Precipitation, MM = Missing Value Source: NWS Daily Summary

Daily Weather History Graph

Daily Weather History Graph

Search for Another Location

Airport:

Trip Planner

Search our weather history database for the weather conditions in past years. The results will help you decide how hot, cold, wet, or windy it might be!

Date:

Astronomy

Dec. 24, 2012 Rise Set
Actual Time 7:47 AM CST 5:06 PM CST
Civil Twilight 7:17 AM CST 5:36 PM CST
Nautical Twilight 6:42 AM CST 6:11 PM CST
Astronomical Twilight 6:09 AM CST 6:44 PM CST
Moon 2:34 PM CST (12/24) 4:27 AM CST (12/24)
Length of Visible Light 10h 19m
Length of Day
9h 18m
Waxing Gibbous, 88% of the Moon is Illuminated
Dec 24
Waxing Gibbous
Dec 28
Full
Jan 4
Last Quarter
Jan 11
New
Jan 18
First Quarter

Hourly Weather History & Observations

Time (CST) Temp. Windchill Dew Point Humidity Pressure Visibility Wind Dir Wind Speed Gust Speed Precip Events Conditions
12:15 AM 14.7 °F 3.8 °F 10.4 °F 83% 30.03 in 7.0 mi NW 8.1 mph - N/A   Clear
12:35 AM 14.5 °F 4.6 °F 10.4 °F 84% 30.03 in 7.0 mi NNW 6.9 mph - N/A   Clear
12:55 AM 14.7 °F 2.1 °F 10.4 °F 83% 30.02 in 7.0 mi NW 10.4 mph - N/A   Clear
1:15 AM 14.5 °F 3.6 °F 10.4 °F 84% 30.03 in 7.0 mi NW 8.1 mph - N/A   Clear
1:35 AM 14.5 °F 2.7 °F 10.4 °F 84% 30.03 in 7.0 mi NW 9.2 mph - N/A   Clear
1:55 AM 15.4 °F 3.0 °F 11.1 °F 83% 30.03 in 7.0 mi NNW 10.4 mph - N/A   Mostly Cloudy
2:15 AM 15.3 °F 3.5 °F 10.8 °F 82% 30.03 in 7.0 mi NNW 9.2 mph - N/A   Scattered Clouds
2:35 AM 14.9 °F 2.3 °F 10.2 °F 82% 30.03 in 10.0 mi NNW 10.4 mph - N/A   Clear
2:55 AM 14.4 °F 2.4 °F 9.3 °F 80% 30.03 in 10.0 mi NNW 9.2 mph - N/A   Clear
3:15 AM 14.0 °F -1.4 °F 8.1 °F 77% 30.03 in 10.0 mi NNW 15.0 mph - N/A   Clear
3:35 AM 13.5 °F 0.5 °F 7.5 °F 77% 30.04 in 10.0 mi NNW 10.4 mph - N/A   Clear
3:55 AM 13.1 °F -0.7 °F 6.8 °F 76% 30.06 in 10.0 mi NNW 11.5 mph - N/A   Clear
4:15 AM 12.7 °F -2.5 °F 6.6 °F 77% 30.05 in 10.0 mi North 13.8 mph - N/A   Clear
4:35 AM 12.2 °F -1.0 °F 5.9 °F 76% 30.05 in 10.0 mi NNW 10.4 mph - N/A   Clear
4:55 AM 12.0 °F -2.0 °F 5.9 °F 76% 30.07 in 10.0 mi WNW 11.5 mph - N/A   Clear
5:15 AM 11.7 °F 0.0 °F 5.9 °F 78% 30.07 in 10.0 mi NW 8.1 mph - N/A   Clear
5:35 AM 11.3 °F -1.3 °F 5.7 °F 78% 30.07 in 10.0 mi NW 9.2 mph - N/A   Clear
5:55 AM 11.1 °F -0.6 °F 5.4 °F 78% 30.06 in 10.0 mi NW 8.1 mph - N/A   Clear
6:15 AM 11.1 °F -0.6 °F 5.0 °F 76% 30.07 in 10.0 mi NW 8.1 mph - N/A   Clear
6:35 AM 10.9 °F -0.8 °F 4.8 °F 76% 30.08 in 10.0 mi NW 8.1 mph - N/A   Clear
6:55 AM 10.8 °F -2.0 °F 4.5 °F 76% 30.08 in 10.0 mi NW 9.2 mph - N/A   Clear
7:15 AM 10.4 °F -2.4 °F 4.1 °F 76% 30.09 in 10.0 mi NW 9.2 mph - N/A   Clear
7:35 AM 10.2 °F -2.7 °F 4.1 °F 76% 30.09 in 10.0 mi NW 9.2 mph - N/A   Clear
7:55 AM 10.2 °F -2.7 °F 4.1 °F 76% 30.10 in 10.0 mi NW 9.2 mph - N/A   Clear
8:15 AM 10.4 °F -3.3 °F 4.1 °F 76% 30.11 in 10.0 mi NW 10.4 mph - N/A   Clear
8:35 AM 11.3 °F -2.9 °F 4.8 °F 75% 30.11 in 10.0 mi NNW 11.5 mph - N/A   Clear
8:55 AM 12.0 °F -2.7 °F 5.2 °F 74% 30.10 in 10.0 mi NNW 12.7 mph - N/A   Clear
9:15 AM 12.7 °F -1.1 °F 5.9 °F 74% 30.11 in 10.0 mi North 11.5 mph 17.3 mph N/A   Clear
9:35 AM 13.5 °F -0.9 °F 6.1 °F 72% 30.12 in 10.0 mi North 12.7 mph - N/A   Clear
9:55 AM 14.9 °F 1.6 °F 7.0 °F 71% 30.14 in 10.0 mi North 11.5 mph - N/A   Clear
10:15 AM 15.6 °F 1.8 °F 7.5 °F 70% 30.15 in 10.0 mi North 12.7 mph - N/A   Clear
10:35 AM 16.5 °F 1.3 °F 8.8 °F 72% 30.15 in 10.0 mi North 16.1 mph - N/A   Clear
10:55 AM 16.3 °F 2.1 °F 8.1 °F 70% 30.14 in 10.0 mi North 13.8 mph - N/A   Clear
11:15 AM 16.5 °F 0.3 °F 8.1 °F 69% 30.12 in 10.0 mi North 18.4 mph - N/A   Clear
11:35 AM 16.5 °F 1.8 °F 8.2 °F 70% 30.12 in 10.0 mi North 15.0 mph - N/A   Clear
11:55 AM 17.2 °F 2.7 °F 8.4 °F 68% 30.10 in 10.0 mi NNE 15.0 mph 21.9 mph N/A   Clear
12:15 PM 18.9 °F 7.2 °F 9.3 °F 66% 30.10 in 10.0 mi North 10.4 mph - N/A   Clear
12:35 PM 19.2 °F 5.8 °F 8.8 °F 64% 30.11 in 10.0 mi North 13.8 mph - N/A   Clear
12:55 PM 18.9 °F 8.0 °F 8.6 °F 64% 30.12 in 10.0 mi North 9.2 mph - N/A   Clear
1:15 PM 18.9 °F 7.2 °F 9.0 °F 65% 30.12 in 10.0 mi NNW 10.4 mph - N/A   Clear
1:35 PM 18.5 °F 5.5 °F 9.0 °F 66% 30.12 in 10.0 mi NNW 12.7 mph - N/A   Clear
1:55 PM 18.5 °F 6.8 °F 9.1 °F 67% 30.12 in 10.0 mi North 10.4 mph 17.3 mph N/A   Clear
2:15 PM 18.7 °F 6.3 °F 9.0 °F 66% 30.12 in 10.0 mi North 11.5 mph - N/A   Clear
2:35 PM 18.5 °F 6.1 °F 9.0 °F 66% 30.12 in 10.0 mi North 11.5 mph - N/A   Clear
2:55 PM 18.5 °F 4.3 °F 9.1 °F 67% 30.11 in 10.0 mi North 15.0 mph - N/A   Mostly Cloudy
3:15 PM 18.5 °F 3.8 °F 8.8 °F 66% 30.11 in 10.0 mi North 16.1 mph - N/A   Mostly Cloudy
3:35 PM 18.5 °F 5.5 °F 9.0 °F 66% 30.12 in 10.0 mi NNE 12.7 mph - N/A   Mostly Cloudy
3:55 PM 18.5 °F 5.5 °F 9.3 °F 67% 30.12 in 10.0 mi North 12.7 mph - N/A   Mostly Cloudy
4:15 PM 18.9 °F 8.0 °F 9.9 °F 68% 30.12 in 10.0 mi NNE 9.2 mph - N/A   Mostly Cloudy
4:35 PM 18.9 °F 5.3 °F 9.5 °F 67% 30.11 in 10.0 mi NNE 13.8 mph 18.4 mph N/A   Overcast
4:55 PM 18.9 °F 4.8 °F 10.2 °F 69% 30.09 in 10.0 mi NE 15.0 mph 20.7 mph N/A   Overcast
5:15 PM 18.5 °F 4.3 °F 9.5 °F 68% 30.09 in 10.0 mi NE 15.0 mph 20.7 mph N/A   Overcast
5:35 PM 18.5 °F 4.9 °F 9.9 °F 69% 30.09 in 10.0 mi NE 13.8 mph 18.4 mph N/A   Mostly Cloudy
5:55 PM 18.5 °F 4.9 °F 10.2 °F 70% 30.11 in 10.0 mi NE 13.8 mph 17.3 mph N/A   Overcast
6:15 PM 18.9 °F 5.9 °F 10.2 °F 69% 30.12 in 10.0 mi NE 12.7 mph 18.4 mph N/A   Overcast
6:35 PM 18.9 °F 8.0 °F 10.2 °F 69% 30.12 in 10.0 mi NE 9.2 mph - N/A   Overcast
6:55 PM 18.9 °F 7.2 °F 10.6 °F 70% 30.12 in 10.0 mi NE 10.4 mph - N/A   Overcast
7:15 PM 19.0 °F 7.5 °F 10.9 °F 71% 30.12 in 10.0 mi NE 10.4 mph - N/A   Overcast
7:35 PM 19.0 °F 7.5 °F 10.6 °F 70% 30.13 in 10.0 mi NE 10.4 mph - N/A   Overcast
7:55 PM 19.0 °F 7.5 °F 10.9 °F 71% 30.13 in 10.0 mi NE 10.4 mph - N/A   Overcast
8:15 PM 19.2 °F 7.0 °F 10.9 °F 70% 30.13 in 10.0 mi NE 11.5 mph 18.4 mph N/A   Overcast
8:35 PM 19.4 °F 9.5 °F 11.1 °F 70% 30.14 in 10.0 mi NE 8.1 mph 18.4 mph N/A   Overcast
8:55 PM 19.4 °F 7.2 °F 11.1 °F 70% 30.15 in 10.0 mi NE 11.5 mph - N/A   Overcast
9:15 PM 19.2 °F 9.3 °F 10.9 °F 70% 30.16 in 10.0 mi NNE 8.1 mph - N/A   Overcast
9:35 PM 19.2 °F 10.2 °F 10.9 °F 70% 30.16 in 10.0 mi NE 6.9 mph - N/A   Overcast
9:55 PM 19.2 °F 10.2 °F 11.1 °F 71% 30.16 in 10.0 mi NE 6.9 mph - N/A   Overcast
10:15 PM 19.2 °F 9.3 °F 11.1 °F 71% 30.17 in 10.0 mi NE 8.1 mph - N/A   Overcast
10:35 PM 19.2 °F 10.2 °F 11.3 °F 71% 30.17 in 10.0 mi NE 6.9 mph - N/A   Mostly Cloudy
10:55 PM 19.2 °F 7.7 °F 11.3 °F 71% 30.18 in 10.0 mi NE 10.4 mph - N/A   Mostly Cloudy
11:15 PM 19.2 °F 7.7 °F 11.3 °F 71% 30.19 in 10.0 mi NNE 10.4 mph - N/A   Overcast
11:35 PM 19.0 °F 6.8 °F 11.3 °F 72% 30.19 in 10.0 mi NNE 11.5 mph - N/A   Overcast
11:55 PM 18.9 °F 7.2 °F 11.1 °F 72% 30.20 in 10.0 mi NNE 10.4 mph - N/A   Overcast